TimeMST,TemperatureF,Dew PointF,Humidity,Sea Level PressureIn,VisibilityMPH,Wind Direction,Wind SpeedMPH,Gust SpeedMPH,PrecipitationIn,Events,Conditions,WindDirDegrees,DateUTC
12:57 AM,21.0,14.0,74,30.09,10.0,Calm,Calm,-,N/A,,Clear,0,2013-02-17 07:57:00
1:57 AM,19.9,12.0,71,30.05,10.0,Calm,Calm,-,N/A,,Clear,0,2013-02-17 08:57:00
2:57 AM,19.9,12.0,71,30.02,10.0,Calm,Calm,-,N/A,,Clear,0,2013-02-17 09:57:00
3:57 AM,21.0,12.0,68,29.98,10.0,Calm,Calm,-,N/A,,Clear,0,2013-02-17 10:57:00
4:57 AM,19.0,10.0,68,29.98,10.0,Calm,Calm,-,N/A,,Clear,0,2013-02-17 11:57:00
5:57 AM,18.0,10.0,71,29.99,10.0,Calm,Calm,-,N/A,,Clear,0,2013-02-17 12:57:00
6:57 AM,17.1,10.0,74,30.04,10.0,Calm,Calm,-,N/A,,Clear,0,2013-02-17 13:57:00
7:57 AM,24.1,16.0,71,30.01,10.0,West,3.5,-,N/A,,Clear,280,2013-02-17 14:57:00
8:57 AM,39.0,10.9,32,29.95,10.0,WSW,9.2,-,N/A,,Clear,240,2013-02-17 15:57:00
9:57 AM,42.1,12.0,29,29.93,10.0,SSW,15.0,-,N/A,,Clear,210,2013-02-17 16:57:00
10:57 AM,44.1,10.0,25,29.92,10.0,SW,16.1,21.9,N/A,,Clear,230,2013-02-17 17:57:00
11:57 AM,45.0,12.9,27,29.89,10.0,SSW,16.1,25.3,N/A,,Clear,210,2013-02-17 18:57:00
12:57 PM,46.0,12.9,26,29.87,10.0,SW,15.0,26.5,N/A,,Clear,230,2013-02-17 19:57:00
1:57 PM,46.9,10.0,22,29.85,10.0,WSW,15.0,23.0,N/A,,Clear,250,2013-02-17 20:57:00
2:57 PM,46.9,12.9,25,29.83,10.0,SSW,21.9,35.7,N/A,,Clear,210,2013-02-17 21:57:00
3:57 PM,48.0,6.1,18,29.81,10.0,WSW,17.3,26.5,N/A,,Clear,240,2013-02-17 22:57:00
4:57 PM,46.0,7.0,20,29.83,10.0,WSW,19.6,28.8,N/A,,Clear,240,2013-02-17 23:57:00
5:57 PM,43.0,10.0,26,29.87,10.0,WSW,15.0,21.9,N/A,,Clear,240,2013-02-18 00:57:00
6:57 PM,39.9,9.0,28,29.90,10.0,SW,15.0,-,N/A,,Clear,230,2013-02-18 01:57:00
7:57 PM,37.9,9.0,30,29.88,10.0,SW,15.0,21.9,N/A,,Clear,230,2013-02-18 02:57:00
8:57 PM,37.0,10.0,33,29.85,10.0,WSW,9.2,-,N/A,,Clear,240,2013-02-18 03:57:00
9:57 PM,34.0,10.9,38,29.87,10.0,WSW,8.1,-,N/A,,Clear,240,2013-02-18 04:57:00
10:57 PM,27.0,12.9,56,29.91,10.0,Calm,Calm,-,N/A,,Clear,0,2013-02-18 05:57:00
11:57 PM,25.0,15.1,66,29.93,10.0,Calm,Calm,-,N/A,,Clear,0,2013-02-18 06:57:00